Погода в Псебае

Россия / Краснодарский край     44°06′57″N   40°47′54″E
темп.,
°C
ветер,
м/с
пор.,
м/с
влажн.,
%
обл.,
%
осадки,
мм/ч
давл.,
гПа
погр.,
м
15 августа, пн
пн1500:00+17ююз33751 0.0 100848
03:00+17ююз32675 0.0 100833
06:00+18ююз226698 0.0 100824
09:00+23ссв105958 0.0 1007340
12:00+27ссв32460 0.0 10071185
15:00+28ссв22441 0.3 10061577
18:00+26зсз00640 0.1 100613
21:00+21ююз33660 0.2 100847
16 августа, вт
вт1600:00+20ююз44620 0.0 100852
03:00+18ююз32580 0.0 100930
06:00+17ююз22644 0.0 101119
09:00+23всв22580 0.0 1011624
12:00+27ссв334734 0.0 10111601
15:00+25с126276 1.2 10111000
18:00+21ю118823 2.3 101341
21:00+17ююз32920 2.3 101434
17 августа, ср
ср1700:00+16ююз32910 0.0 101440
03:00+15ююз33850 0.0 101440
06:00+16ююз22740 0.0 101426
09:00+22ссв21612 0.0 1013562
12:00+26ссв325412 0.0 10121354
15:00+24юз117358 1.3 1011224
18:00+21з118614 2.6 101218
21:00+17ююз44930 3.4 101352
18 августа, чт
чт1800:00+16ююз32930 0.5 101238
03:00+16ююз32930 1.0 101232
06:00+15ююз32900 0.1 101234
09:00+23с22652 0.1 1011569
12:00+24с326570 0.8 10111156
15:00+22с128329 5.3 1011508
18:00+21ююв01903 4.6 101239
21:00+16ю32940 5.8 101240
19 августа, пт
пт1900:00+15ююз32930 0.8 101231
03:00+14ююз329322 1.1 101232
06:00+14ююз339142 0.1 101341
09:00+19з0178100 0.2 1012163
12:00+24ссв3258100 0.0 10101226
15:00+22с1286100 2.9 1011108
18:00+19с139494 6.4 1012103
21:00+16юв239981 7.9 1014176